Time,TemperatureF,DewpointF,PressureIn,WindDirection,WindDirectionDegrees,WindSpeedMPH,WindSpeedGustMPH,Humidity,HourlyPrecipIn,Conditions,Clouds,dailyrainin,SoftwareType,DateUTC
2013-09-23 00:01:00,49.7,38.4,29.83,NW,318,0.0,0.0,65,0.00,RA,,0.00,WeatherDisplay:10.37,2013-09-23 04:01:00,
2013-09-23 00:02:00,49.1,37.8,29.83,NW,318,0.0,0.0,65,0.00,RA,,0.00,WeatherDisplay:10.37,2013-09-23 04:02:00,
2013-09-23 00:07:00,48.5,37.3,29.83,NW,317,3.5,3.5,65,0.00,CLR,,0.00,WeatherDisplay:10.37,2013-09-23 04:07:00,
2013-09-23 00:12:00,48.8,39.4,29.84,NW,318,2.3,0.0,70,0.00,CLR,,0.00,WeatherDisplay:10.37,2013-09-23 04:12:00,
2013-09-23 00:17:00,48.1,38.8,29.84,NW,318,0.0,0.0,70,0.00,CLR,,0.00,WeatherDisplay:10.37,2013-09-23 04:17:00,
2013-09-23 00:22:00,49.1,39.7,29.84,NW,317,0.0,0.0,70,0.00,CLR,,0.00,WeatherDisplay:10.37,2013-09-23 04:22:00,
2013-09-23 00:27:00,49.1,39.7,29.84,NW,318,0.0,0.0,70,0.00,CLR,,0.00,WeatherDisplay:10.37,2013-09-23 04:27:00,
2013-09-23 00:32:00,48.6,39.3,29.84,NW,318,0.0,0.0,70,0.00,CLR,,0.00,WeatherDisplay:10.37,2013-09-23 04:32:00,
2013-09-23 00:37:00,47.2,37.9,29.84,NW,318,0.0,0.0,70,0.00,CLR,,0.00,WeatherDisplay:10.37,2013-09-23 04:37:00,
2013-09-23 00:42:00,48.1,38.8,29.84,NW,318,0.0,0.0,70,0.00,CLR,,0.00,WeatherDisplay:10.37,2013-09-23 04:42:00,
2013-09-23 00:47:00,49.5,40.1,29.84,NW,318,0.0,0.0,70,0.00,CLR,,0.00,WeatherDisplay:10.37,2013-09-23 04:47:00,
2013-09-23 00:52:00,49.9,40.5,29.84,NW,318,0.0,0.0,70,0.00,CLR,,0.00,WeatherDisplay:10.37,2013-09-23 04:52:00,
2013-09-23 00:57:00,49.7,40.3,29.84,NW,317,0.0,0.0,70,0.00,CLR,,0.00,WeatherDisplay:10.37,2013-09-23 04:57:00,
2013-09-23 01:02:00,48.5,39.2,29.84,NW,318,0.0,0.0,70,0.00,CLR,,0.00,WeatherDisplay:10.37,2013-09-23 05:02:00,
2013-09-23 01:07:00,47.3,38.0,29.84,NW,318,0.0,0.0,70,0.00,CLR,,0.00,WeatherDisplay:10.37,2013-09-23 05:07:00,
2013-09-23 01:12:00,48.1,39.9,29.84,NW,318,0.0,0.0,73,0.00,CLR,,0.00,WeatherDisplay:10.37,2013-09-23 05:12:00,
2013-09-23 01:17:00,48.6,40.3,29.84,NW,318,0.0,0.0,73,0.00,CLR,,0.00,WeatherDisplay:10.37,2013-09-23 05:17:00,
2013-09-23 01:22:00,48.0,39.8,29.84,NW,317,3.5,3.5,73,0.00,CLR,,0.00,WeatherDisplay:10.37,2013-09-23 05:22:00,
2013-09-23 01:27:00,47.0,38.8,29.84,NW,317,3.5,3.5,73,0.00,CLR,,0.00,WeatherDisplay:10.37,2013-09-23 05:27:00,
2013-09-23 01:32:00,47.6,39.4,29.84,NW,318,2.3,2.3,73,0.00,CLR,,0.00,WeatherDisplay:10.37,2013-09-23 05:32:00,
2013-09-23 01:37:00,48.4,40.1,29.84,NW,317,2.3,0.0,73,0.00,CLR,,0.00,WeatherDisplay:10.37,2013-09-23 05:37:00,
2013-09-23 01:42:00,48.2,39.9,29.84,NW,318,3.5,3.5,73,0.00,CLR,,0.00,WeatherDisplay:10.37,2013-09-23 05:42:00,
2013-09-23 01:47:00,47.9,39.7,29.84,NW,317,2.3,2.3,73,0.00,CLR,,0.00,WeatherDisplay:10.37,2013-09-23 05:47:00,
2013-09-23 01:52:00,47.7,39.5,29.84,NW,317,3.5,3.5,73,0.00,CLR,,0.00,WeatherDisplay:10.37,2013-09-23 05:52:00,
2013-09-23 01:57:00,47.9,39.7,29.84,NW,317,3.5,3.5,73,0.00,CLR,,0.00,WeatherDisplay:10.37,2013-09-23 05:57:00,
2013-09-23 02:02:00,48.6,40.3,29.84,NW,317,2.3,2.3,73,0.00,CLR,,0.00,WeatherDisplay:10.37,2013-09-23 06:02:00,
2013-09-23 02:07:00,48.7,40.4,29.84,NW,318,2.3,2.3,73,0.00,CLR,,0.00,WeatherDisplay:10.37,2013-09-23 06:07:00,
2013-09-23 02:12:00,49.2,42.0,29.85,NW,317,2.3,0.0,76,0.00,CLR,,0.00,WeatherDisplay:10.37,2013-09-23 06:12:00,
2013-09-23 02:17:00,49.2,42.0,29.85,NW,317,0.0,0.0,76,0.00,CLR,,0.00,WeatherDisplay:10.37,2013-09-23 06:17:00,
2013-09-23 02:22:00,49.0,41.8,29.85,NW,318,2.0,2.0,76,0.00,CLR,,0.00,WeatherDisplay:10.37,2013-09-23 06:22:00,
2013-09-23 02:27:00,47.2,40.0,29.85,NW,318,2.3,2.3,76,0.00,CLR,,0.00,WeatherDisplay:10.37,2013-09-23 06:27:00,
2013-09-23 02:32:00,49.0,41.8,29.85,NW,318,1.1,1.1,76,0.00,CLR,,0.00,WeatherDisplay:10.37,2013-09-23 06:32:00,
2013-09-23 02:37:00,48.7,41.5,29.85,NW,318,0.0,0.0,76,0.00,CLR,,0.00,WeatherDisplay:10.37,2013-09-23 06:37:00,
2013-09-23 02:42:00,48.9,41.7,29.85,NW,317,0.0,0.0,76,0.00,CLR,,0.00,WeatherDisplay:10.37,2013-09-23 06:42:00,
2013-09-23 02:47:00,47.6,40.4,29.85,NW,317,1.1,1.1,76,0.00,CLR,,0.00,WeatherDisplay:10.37,2013-09-23 06:47:00,
2013-09-23 02:52:00,46.2,39.1,29.85,NW,317,3.5,3.5,76,0.00,CLR,,0.00,WeatherDisplay:10.37,2013-09-23 06:52:00,
2013-09-23 02:57:00,47.7,40.5,29.85,NW,318,2.3,2.3,76,0.00,CLR,,0.00,WeatherDisplay:10.37,2013-09-23 06:57:00,
2013-09-23 03:02:00,48.7,41.5,29.85,NW,317,2.3,2.3,76,0.00,CLR,,0.00,WeatherDisplay:10.37,2013-09-23 07:02:00,
2013-09-23 03:07:00,48.6,41.4,29.85,NW,317,0.0,0.0,76,0.00,CLR,,0.00,WeatherDisplay:10.37,2013-09-23 07:07:00,
2013-09-23 03:12:00,48.0,40.8,29.85,NW,318,0.0,0.0,76,0.00,CLR,,0.00,WeatherDisplay:10.37,2013-09-23 07:12:00,
2013-09-23 03:17:00,47.8,40.6,29.85,NW,317,0.0,0.0,76,0.00,CLR,,0.00,WeatherDisplay:10.37,2013-09-23 07:17:00,
2013-09-23 03:22:00,46.5,39.3,29.85,NW,317,0.0,0.0,76,0.00,CLR,,0.00,WeatherDisplay:10.37,2013-09-23 07:22:00,
2013-09-23 03:27:00,45.4,38.3,29.85,NW,317,3.5,3.5,76,0.00,CLR,,0.00,WeatherDisplay:10.37,2013-09-23 07:27:00,
2013-09-23 03:32:00,48.1,40.9,29.85,NW,318,2.3,2.3,76,0.00,CLR,,0.00,WeatherDisplay:10.37,2013-09-23 07:32:00,
2013-09-23 03:37:00,47.4,40.2,29.85,NW,317,0.0,0.0,76,0.00,CLR,,0.00,WeatherDisplay:10.37,2013-09-23 07:37:00,
2013-09-23 03:42:00,46.0,38.9,29.85,NW,317,2.0,0.0,76,0.00,CLR,,0.00,WeatherDisplay:10.37,2013-09-23 07:42:00,
2013-09-23 03:47:00,47.4,40.2,29.85,NW,318,0.0,0.0,76,0.00,CLR,,0.00,WeatherDisplay:10.37,2013-09-23 07:47:00,
2013-09-23 03:52:00,47.5,40.3,29.85,NW,318,0.0,0.0,76,0.00,CLR,,0.00,WeatherDisplay:10.37,2013-09-23 07:52:00,
2013-09-23 03:57:00,47.2,40.0,29.85,NW,317,3.0,3.0,76,0.00,CLR,,0.00,WeatherDisplay:10.37,2013-09-23 07:57:00,
2013-09-23 04:02:00,48.4,41.2,29.85,NW,318,0.0,0.0,76,0.00,CLR,,0.00,WeatherDisplay:10.37,2013-09-23 08:02:00,
2013-09-23 04:07:00,46.3,39.1,29.85,NW,317,1.1,1.1,76,0.00,CLR,,0.00,WeatherDisplay:10.37,2013-09-23 08:07:00,
2013-09-23 04:12:00,45.6,38.5,29.86,NW,318,3.5,3.5,76,0.00,CLR,,0.00,WeatherDisplay:10.37,2013-09-23 08:12:00,
2013-09-23 04:17:00,45.0,37.9,29.86,NW,317,3.5,3.5,76,0.00,CLR,,0.00,WeatherDisplay:10.37,2013-09-23 08:17:00,
2013-09-23 04:22:00,46.6,39.4,29.86,NW,317,0.0,0.0,76,0.00,CLR,,0.00,WeatherDisplay:10.37,2013-09-23 08:22:00,
2013-09-23 04:27:00,45.8,38.7,29.86,NW,317,1.1,1.1,76,0.00,CLR,,0.00,WeatherDisplay:10.37,2013-09-23 08:27:00,
2013-09-23 04:32:00,44.1,37.0,29.86,NW,317,0.0,0.0,76,0.00,CLR,,0.00,WeatherDisplay:10.37,2013-09-23 08:32:00,
2013-09-23 04:37:00,44.2,37.1,29.86,NW,318,0.0,0.0,76,0.00,CLR,,0.00,WeatherDisplay:10.37,2013-09-23 08:37:00,
2013-09-23 04:42:00,44.1,37.0,29.86,NW,318,0.0,0.0,76,0.00,CLR,,0.00,WeatherDisplay:10.37,2013-09-23 08:42:00,
2013-09-23 04:47:00,45.1,38.0,29.86,NE,44,1.1,1.1,76,0.00,CLR,,0.00,WeatherDisplay:10.37,2013-09-23 08:47:00,
2013-09-23 04:52:00,46.6,39.4,29.86,NE,44,0.0,0.0,76,0.00,CLR,,0.00,WeatherDisplay:10.37,2013-09-23 08:52:00,
2013-09-23 04:57:00,45.0,37.9,29.86,NE,44,0.0,0.0,76,0.00,CLR,,0.00,WeatherDisplay:10.37,2013-09-23 08:57:00,
2013-09-23 05:02:00,44.3,37.2,29.86,NE,44,0.0,0.0,76,0.00,CLR,,0.00,WeatherDisplay:10.37,2013-09-23 09:02:00,
2013-09-23 05:07:00,46.0,38.9,29.86,NE,44,0.0,0.0,76,0.00,CLR,,0.00,WeatherDisplay:10.37,2013-09-23 09:07:00,
2013-09-23 05:12:00,46.4,39.2,29.87,NE,41,2.3,2.3,76,0.00,BKN,,0.00,WeatherDisplay:10.37,2013-09-23 09:12:00,
2013-09-23 05:17:00,44.6,37.5,29.87,NE,41,2.3,2.3,76,0.00,BKN,,0.00,WeatherDisplay:10.37,2013-09-23 09:17:00,
2013-09-23 05:22:00,46.1,39.0,29.87,NE,41,1.1,1.1,76,0.00,BKN,,0.00,WeatherDisplay:10.37,2013-09-23 09:22:00,
2013-09-23 05:27:00,44.8,37.7,29.87,NE,41,0.0,0.0,76,0.00,BKN,,0.00,WeatherDisplay:10.37,2013-09-23 09:27:00,
2013-09-23 05:32:00,44.2,37.1,29.87,NE,41,3.5,3.5,76,0.00,BKN,,0.00,WeatherDisplay:10.37,2013-09-23 09:32:00,
2013-09-23 05:37:00,45.0,37.9,29.87,NE,41,1.0,0.0,76,0.00,BKN,,0.00,WeatherDisplay:10.37,2013-09-23 09:37:00,
2013-09-23 05:42:00,46.3,39.1,29.87,NE,40,2.3,2.3,76,0.00,BKN,,0.00,WeatherDisplay:10.37,2013-09-23 09:42:00,
2013-09-23 05:47:00,45.3,38.2,29.87,NNE,31,2.3,2.3,76,0.00,BKN,,0.00,WeatherDisplay:10.37,2013-09-23 09:47:00,
2013-09-23 05:52:00,44.5,37.4,29.87,NNE,30,3.0,3.0,76,0.00,BKN,,0.00,WeatherDisplay:10.37,2013-09-23 09:52:00,
2013-09-23 05:57:00,43.8,36.7,29.87,WNW,303,3.5,3.5,76,0.00,BKN,,0.00,WeatherDisplay:10.37,2013-09-23 09:57:00,
2013-09-23 06:02:00,43.5,36.4,29.87,West,270,3.5,3.5,76,0.00,BKN,,0.00,WeatherDisplay:10.37,2013-09-23 10:02:00,
2013-09-23 06:07:00,44.2,37.1,29.87,West,270,3.5,3.5,76,0.00,BKN,,0.00,WeatherDisplay:10.37,2013-09-23 10:07:00,
2013-09-23 06:12:00,45.1,35.9,29.88,West,273,3.5,3.5,70,0.00,OVC,,0.00,WeatherDisplay:10.37,2013-09-23 10:12:00,
2013-09-23 06:17:00,43.9,34.7,29.88,West,274,3.5,3.5,70,0.00,OVC,,0.00,WeatherDisplay:10.37,2013-09-23 10:17:00,
2013-09-23 06:22:00,44.4,35.2,29.88,West,274,4.0,4.0,70,0.00,OVC,,0.00,WeatherDisplay:10.37,2013-09-23 10:22:00,
2013-09-23 06:27:00,45.6,36.4,29.88,WNW,288,3.5,3.5,70,0.00,OVC,,0.00,WeatherDisplay:10.37,2013-09-23 10:27:00,
2013-09-23 06:32:00,43.7,34.6,29.88,NW,317,2.3,2.3,70,0.00,OVC,,0.00,WeatherDisplay:10.37,2013-09-23 10:32:00,
2013-09-23 06:37:00,44.5,35.3,29.88,NW,317,2.0,2.0,70,0.00,OVC,,0.00,WeatherDisplay:10.37,2013-09-23 10:37:00,
2013-09-23 06:42:00,44.8,35.6,29.88,NW,317,3.5,3.5,70,0.00,OVC,,0.00,WeatherDisplay:10.37,2013-09-23 10:42:00,
2013-09-23 06:47:00,45.2,36.0,29.88,NW,317,3.5,3.5,70,0.00,OVC,,0.00,WeatherDisplay:10.37,2013-09-23 10:47:00,
2013-09-23 06:52:00,44.3,35.1,29.88,NW,316,5.0,5.0,70,0.00,OVC,,0.00,WeatherDisplay:10.37,2013-09-23 10:52:00,
2013-09-23 06:57:00,43.6,34.5,29.88,NW,315,3.5,3.5,70,0.00,OVC,,0.00,WeatherDisplay:10.37,2013-09-23 10:57:00,
2013-09-23 07:02:00,44.1,34.9,29.88,NW,308,4.6,4.6,70,0.00,OVC,,0.00,WeatherDisplay:10.37,2013-09-23 11:02:00,
2013-09-23 07:07:00,43.8,34.6,29.88,NW,308,5.0,5.0,70,0.00,OVC,,0.00,WeatherDisplay:10.37,2013-09-23 11:07:00,
2013-09-23 07:12:00,43.8,34.6,29.90,North,349,3.5,3.5,70,0.00,BKN,,0.00,WeatherDisplay:10.37,2013-09-23 11:12:00,
2013-09-23 07:17:00,43.6,34.5,29.90,NW,322,3.5,3.5,70,0.00,BKN,,0.00,WeatherDisplay:10.37,2013-09-23 11:17:00,
2013-09-23 07:22:00,43.9,34.7,29.90,NW,304,4.6,4.6,70,0.00,BKN,,0.00,WeatherDisplay:10.37,2013-09-23 11:22:00,
2013-09-23 07:27:00,44.0,34.8,29.90,NW,304,3.5,3.5,70,0.00,BKN,,0.00,WeatherDisplay:10.37,2013-09-23 11:27:00,
2013-09-23 07:32:00,44.0,34.8,29.90,NW,305,6.9,6.9,70,0.00,BKN,,0.00,WeatherDisplay:10.37,2013-09-23 11:32:00,
2013-09-23 07:37:00,44.2,35.0,29.90,NW,308,5.8,5.8,70,0.00,BKN,,0.00,WeatherDisplay:10.37,2013-09-23 11:37:00,
2013-09-23 07:42:00,44.1,34.9,29.90,NW,309,4.0,4.0,70,0.00,BKN,,0.00,WeatherDisplay:10.37,2013-09-23 11:42:00,
2013-09-23 07:47:00,44.3,35.1,29.90,NW,308,5.8,5.8,70,0.00,BKN,,0.00,WeatherDisplay:10.37,2013-09-23 11:47:00,
2013-09-23 07:52:00,44.5,35.3,29.90,NNW,343,9.2,9.2,70,0.00,BKN,,0.00,WeatherDisplay:10.37,2013-09-23 11:52:00,
2013-09-23 07:57:00,44.8,35.6,29.90,NW,324,6.9,6.9,70,0.00,BKN,,0.00,WeatherDisplay:10.37,2013-09-23 11:57:00,
2013-09-23 08:02:00,44.8,35.6,29.90,WNW,301,5.8,5.8,70,0.00,BKN,,0.00,WeatherDisplay:10.37,2013-09-23 12:02:00,
2013-09-23 08:07:00,45.2,36.0,29.90,WNW,297,6.0,6.0,70,0.00,BKN,,0.00,WeatherDisplay:10.37,2013-09-23 12:07:00,
2013-09-23 08:12:00,45.3,35.0,29.91,WNW,293,3.5,3.5,67,0.00,CLR,,0.00,WeatherDisplay:10.37,2013-09-23 12:12:00,
2013-09-23 08:17:00,45.7,35.4,29.91,WNW,293,3.5,3.5,67,0.00,CLR,,0.00,WeatherDisplay:10.37,2013-09-23 12:17:00,
2013-09-23 08:22:00,45.5,35.2,29.91,NW,312,3.5,3.5,67,0.00,CLR,,0.00,WeatherDisplay:10.37,2013-09-23 12:22:00,
2013-09-23 08:27:00,45.8,35.5,29.91,NW,308,4.6,4.6,67,0.00,CLR,,0.00,WeatherDisplay:10.37,2013-09-23 12:27:00,
2013-09-23 08:32:00,46.5,36.1,29.91,NW,307,3.5,3.5,67,0.00,CLR,,0.00,WeatherDisplay:10.37,2013-09-23 12:32:00,
2013-09-23 08:37:00,46.2,35.8,29.91,WNW,294,4.6,4.6,67,0.00,CLR,,0.00,WeatherDisplay:10.37,2013-09-23 12:37:00,
2013-09-23 08:42:00,46.6,36.2,29.91,North,354,0.0,0.0,67,0.00,CLR,,0.00,WeatherDisplay:10.37,2013-09-23 12:42:00,
2013-09-23 08:47:00,46.7,36.3,29.91,NW,325,3.5,3.5,67,0.00,CLR,,0.00,WeatherDisplay:10.37,2013-09-23 12:47:00,
2013-09-23 08:52:00,46.3,35.9,29.91,NW,317,4.6,4.6,67,0.00,CLR,,0.00,WeatherDisplay:10.37,2013-09-23 12:52:00,
2013-09-23 08:57:00,47.4,37.0,29.91,SW,220,3.5,3.5,67,0.00,CLR,,0.00,WeatherDisplay:10.37,2013-09-23 12:57:00,
2013-09-23 09:02:00,46.6,34.7,29.92,NW,305,5.0,5.0,63,0.00,FEW,,0.00,WeatherDisplay:10.37,2013-09-23 13:02:00,
2013-09-23 09:07:00,46.5,34.6,29.92,NW,304,6.9,6.9,63,0.00,FEW,,0.00,WeatherDisplay:10.37,2013-09-23 13:07:00,
2013-09-23 09:12:00,47.2,35.2,29.92,West,281,8.1,8.1,63,0.00,FEW,,0.00,WeatherDisplay:10.37,2013-09-23 13:12:00,
2013-09-23 09:17:00,46.4,34.5,29.92,WNW,302,5.8,5.8,63,0.00,FEW,,0.00,WeatherDisplay:10.37,2013-09-23 13:17:00,
2013-09-23 09:22:00,46.5,34.6,29.92,WNW,294,3.5,3.5,63,0.00,FEW,,0.00,WeatherDisplay:10.37,2013-09-23 13:22:00,
2013-09-23 09:27:00,47.2,35.2,29.92,WNW,293,4.0,4.0,63,0.00,FEW,,0.00,WeatherDisplay:10.37,2013-09-23 13:27:00,
2013-09-23 09:32:00,46.1,34.2,29.92,NNW,346,4.0,4.0,63,0.00,FEW,,0.00,WeatherDisplay:10.37,2013-09-23 13:32:00,
2013-09-23 09:37:00,45.8,33.9,29.92,NNW,336,4.6,4.6,63,0.00,FEW,,0.00,WeatherDisplay:10.37,2013-09-23 13:37:00,
2013-09-23 09:42:00,46.1,34.2,29.92,NW,313,3.5,3.5,63,0.00,FEW,,0.00,WeatherDisplay:10.37,2013-09-23 13:42:00,
2013-09-23 09:47:00,46.5,34.6,29.92,WNW,302,3.5,3.5,63,0.00,FEW,,0.00,WeatherDisplay:10.37,2013-09-23 13:47:00,
2013-09-23 09:52:00,46.6,34.7,29.92,NW,320,8.0,8.0,63,0.00,FEW,,0.00,WeatherDisplay:10.37,2013-09-23 13:52:00,
2013-09-23 09:57:00,46.9,35.0,29.92,NNW,345,4.0,4.0,63,0.00,FEW,,0.00,WeatherDisplay:10.37,2013-09-23 13:57:00,
2013-09-23 10:02:00,47.4,35.4,29.92,NW,307,3.5,3.5,63,0.00,FEW,,0.00,WeatherDisplay:10.37,2013-09-23 14:02:00,
2013-09-23 10:07:00,47.4,35.4,29.92,NW,322,8.1,8.1,63,0.00,FEW,,0.00,WeatherDisplay:10.37,2013-09-23 14:07:00,
2013-09-23 10:12:00,47.4,34.2,29.92,WNW,292,8.1,8.1,60,0.00,FEW,,0.00,WeatherDisplay:10.37,2013-09-23 14:12:00,
2013-09-23 10:17:00,46.4,33.3,29.92,NW,319,10.4,10.4,60,0.00,FEW,,0.00,WeatherDisplay:10.37,2013-09-23 14:17:00,
2013-09-23 10:22:00,46.7,33.5,29.92,NW,305,3.5,3.5,60,0.00,FEW,,0.00,WeatherDisplay:10.37,2013-09-23 14:22:00,
2013-09-23 10:27:00,47.2,34.0,29.92,WNW,294,3.5,3.5,60,0.00,FEW,,0.00,WeatherDisplay:10.37,2013-09-23 14:27:00,
2013-09-23 10:32:00,47.5,34.3,29.92,NW,309,8.1,8.1,60,0.00,FEW,,0.00,WeatherDisplay:10.37,2013-09-23 14:32:00,
2013-09-23 10:37:00,48.3,35.0,29.92,NNW,328,8.1,8.1,60,0.00,FEW,,0.00,WeatherDisplay:10.37,2013-09-23 14:37:00,
2013-09-23 10:42:00,47.4,34.2,29.92,NW,314,6.9,6.9,60,0.00,FEW,,0.00,WeatherDisplay:10.37,2013-09-23 14:42:00,
2013-09-23 10:47:00,48.3,35.0,29.92,NNW,342,10.4,10.4,60,0.00,FEW,,0.00,WeatherDisplay:10.37,2013-09-23 14:47:00,
2013-09-23 10:53:00,48.9,35.6,29.92,NW,323,4.0,4.0,60,0.00,FEW,,0.00,WeatherDisplay:10.37,2013-09-23 14:53:00,
2013-09-23 10:58:00,50.0,36.7,29.92,NW,323,3.5,3.5,60,0.00,FEW,,0.00,WeatherDisplay:10.37,2013-09-23 14:58:00,
2013-09-23 11:03:00,48.8,34.7,29.93,NW,304,8.1,8.1,58,0.00,BKN,,0.00,WeatherDisplay:10.37,2013-09-23 15:03:00,
2013-09-23 11:08:00,48.9,34.8,29.93,NW,312,4.6,4.6,58,0.00,BKN,,0.00,WeatherDisplay:10.37,2013-09-23 15:08:00,
2013-09-23 11:13:00,49.2,35.0,29.93,WNW,301,4.0,4.0,58,0.00,BKN,,0.00,WeatherDisplay:10.37,2013-09-23 15:13:00,
2013-09-23 11:18:00,49.1,34.9,29.93,NNW,337,6.9,6.9,58,0.00,BKN,,0.00,WeatherDisplay:10.37,2013-09-23 15:18:00,
2013-09-23 11:23:00,49.0,34.9,29.93,NNW,335,8.1,8.1,58,0.00,BKN,,0.00,WeatherDisplay:10.37,2013-09-23 15:23:00,
2013-09-23 11:28:00,49.0,34.9,29.93,WNW,303,5.8,5.8,58,0.00,BKN,,0.00,WeatherDisplay:10.37,2013-09-23 15:28:00,
2013-09-23 11:33:00,49.4,35.2,29.93,NNW,328,7.0,7.0,58,0.00,BKN,,0.00,WeatherDisplay:10.37,2013-09-23 15:33:00,
2013-09-23 11:38:00,50.2,36.0,29.93,NNW,340,5.0,5.0,58,0.00,BKN,,0.00,WeatherDisplay:10.37,2013-09-23 15:38:00,
2013-09-23 11:43:00,50.4,36.2,29.93,NNW,346,5.8,5.8,58,0.00,BKN,,0.00,WeatherDisplay:10.37,2013-09-23 15:43:00,
2013-09-23 11:48:00,49.9,35.7,29.93,NNW,333,9.2,9.2,58,0.00,BKN,,0.00,WeatherDisplay:10.37,2013-09-23 15:48:00,
2013-09-23 11:53:00,50.8,36.5,29.93,NNW,342,4.0,4.0,58,0.00,BKN,,0.00,WeatherDisplay:10.37,2013-09-23 15:53:00,
2013-09-23 11:58:00,50.8,36.5,29.93,NW,310,7.0,7.0,58,0.00,BKN,,0.00,WeatherDisplay:10.37,2013-09-23 15:58:00,
2013-09-23 12:03:00,51.1,36.8,29.93,NW,319,3.5,3.5,58,0.00,BKN,,0.00,WeatherDisplay:10.37,2013-09-23 16:03:00,
2013-09-23 12:08:00,50.4,36.2,29.93,NW,308,6.9,6.9,58,0.00,BKN,,0.00,WeatherDisplay:10.37,2013-09-23 16:08:00,
2013-09-23 12:13:00,50.5,34.5,29.93,NW,307,4.6,4.6,54,0.00,FEW,,0.00,WeatherDisplay:10.37,2013-09-23 16:13:00,
2013-09-23 12:18:00,50.7,34.6,29.93,North,359,3.5,3.5,54,0.00,FEW,,0.00,WeatherDisplay:10.37,2013-09-23 16:18:00,
2013-09-23 12:23:00,51.0,34.9,29.93,NNW,348,3.5,3.5,54,0.00,FEW,,0.00,WeatherDisplay:10.37,2013-09-23 16:23:00,
2013-09-23 12:28:00,51.1,35.0,29.93,NW,320,5.8,5.8,54,0.00,FEW,,0.00,WeatherDisplay:10.37,2013-09-23 16:28:00,
2013-09-23 12:33:00,50.6,34.6,29.93,WNW,289,10.4,10.4,54,0.00,FEW,,0.00,WeatherDisplay:10.37,2013-09-23 16:33:00,
2013-09-23 12:38:00,50.7,34.6,29.93,NNW,339,6.9,6.9,54,0.00,FEW,,0.00,WeatherDisplay:10.37,2013-09-23 16:38:00,
2013-09-23 12:43:00,51.0,34.9,29.93,WNW,300,5.8,5.8,54,0.00,FEW,,0.00,WeatherDisplay:10.37,2013-09-23 16:43:00,
2013-09-23 12:48:00,51.1,35.0,29.93,NW,312,4.6,4.6,54,0.00,FEW,,0.00,WeatherDisplay:10.37,2013-09-23 16:48:00,
2013-09-23 12:53:00,50.7,34.6,29.93,North,353,4.6,4.6,54,0.00,FEW,,0.00,WeatherDisplay:10.37,2013-09-23 16:53:00,
2013-09-23 12:58:00,50.9,34.8,29.93,WNW,294,4.6,4.6,54,0.00,FEW,,0.00,WeatherDisplay:10.37,2013-09-23 16:58:00,
2013-09-23 13:03:00,49.9,33.9,29.93,WNW,296,4.6,4.6,54,0.00,FEW,,0.00,WeatherDisplay:10.37,2013-09-23 17:03:00,
2013-09-23 13:08:00,49.7,33.7,29.93,WNW,300,4.6,4.6,54,0.00,FEW,,0.00,WeatherDisplay:10.37,2013-09-23 17:08:00,
2013-09-23 13:13:00,49.2,33.3,29.93,WNW,300,3.5,3.5,54,0.00,FEW,,0.00,WeatherDisplay:10.37,2013-09-23 17:13:00,
2013-09-23 13:18:00,49.3,33.3,29.93,WNW,300,3.5,3.5,54,0.00,FEW,,0.00,WeatherDisplay:10.37,2013-09-23 17:18:00,
2013-09-23 13:23:00,49.0,33.1,29.93,WNW,299,4.0,4.0,54,0.00,FEW,,0.00,WeatherDisplay:10.37,2013-09-23 17:23:00,
2013-09-23 13:28:00,49.8,33.8,29.93,WNW,301,4.6,4.6,54,0.00,FEW,,0.00,WeatherDisplay:10.37,2013-09-23 17:28:00,
2013-09-23 13:33:00,49.4,33.4,29.93,WNW,300,4.0,4.0,54,0.00,FEW,,0.00,WeatherDisplay:10.37,2013-09-23 17:33:00,
2013-09-23 13:38:00,49.2,33.3,29.93,NNW,334,6.9,6.9,54,0.00,FEW,,0.00,WeatherDisplay:10.37,2013-09-23 17:38:00,
2013-09-23 13:43:00,49.0,33.1,29.93,NW,313,4.6,4.6,54,0.00,FEW,,0.00,WeatherDisplay:10.37,2013-09-23 17:43:00,
2013-09-23 13:48:00,49.1,33.2,29.93,WNW,296,4.6,4.6,54,0.00,FEW,,0.00,WeatherDisplay:10.37,2013-09-23 17:48:00,
2013-09-23 13:53:00,49.1,33.2,29.93,WNW,296,4.6,4.6,54,0.00,FEW,,0.00,WeatherDisplay:10.37,2013-09-23 17:53:00,
2013-09-23 13:58:00,49.3,33.3,29.93,WNW,297,6.0,6.0,54,0.00,FEW,,0.00,WeatherDisplay:10.37,2013-09-23 17:58:00,
2013-09-23 14:03:00,49.8,33.8,29.93,WNW,297,8.0,8.0,54,0.00,FEW,,0.00,WeatherDisplay:10.37,2013-09-23 18:03:00,
2013-09-23 14:08:00,49.2,33.3,29.93,NW,309,4.6,4.6,54,0.00,FEW,,0.00,WeatherDisplay:10.37,2013-09-23 18:08:00,
2013-09-23 14:13:00,50.6,34.6,29.93,NW,310,3.5,3.5,54,0.00,FEW,,0.00,WeatherDisplay:10.37,2013-09-23 18:13:00,
2013-09-23 14:18:00,49.8,33.8,29.93,NW,305,4.6,4.6,54,0.00,FEW,,0.00,WeatherDisplay:10.37,2013-09-23 18:18:00,
2013-09-23 14:23:00,49.7,33.7,29.93,WNW,299,5.8,5.8,54,0.00,FEW,,0.00,WeatherDisplay:10.37,2013-09-23 18:23:00,
2013-09-23 14:28:00,49.8,33.8,29.93,WNW,303,6.0,6.0,54,0.00,FEW,,0.00,WeatherDisplay:10.37,2013-09-23 18:28:00,
2013-09-23 14:33:00,50.0,34.0,29.93,WNW,301,3.5,3.5,54,0.00,FEW,,0.00,WeatherDisplay:10.37,2013-09-23 18:33:00,
2013-09-23 14:38:00,50.8,34.7,29.93,NNW,330,5.8,5.8,54,0.00,FEW,,0.00,WeatherDisplay:10.37,2013-09-23 18:38:00,
2013-09-23 14:43:00,52.9,36.7,29.93,NNW,329,2.3,2.3,54,0.00,FEW,,0.00,WeatherDisplay:10.37,2013-09-23 18:43:00,
2013-09-23 14:48:00,50.9,34.8,29.93,WNW,290,3.5,3.5,54,0.00,FEW,,0.00,WeatherDisplay:10.37,2013-09-23 18:48:00,
2013-09-23 14:53:00,50.4,34.4,29.93,NW,305,4.6,4.6,54,0.00,FEW,,0.00,WeatherDisplay:10.37,2013-09-23 18:53:00,
2013-09-23 14:58:00,50.8,34.7,29.93,NW,304,2.3,2.3,54,0.00,FEW,,0.00,WeatherDisplay:10.37,2013-09-23 18:58:00,
2013-09-23 15:03:00,50.3,34.3,29.93,WNW,303,4.6,4.6,54,0.00,FEW,,0.00,WeatherDisplay:10.37,2013-09-23 19:03:00,
2013-09-23 15:08:00,52.0,35.9,29.93,WNW,303,3.0,3.0,54,0.00,FEW,,0.00,WeatherDisplay:10.37,2013-09-23 19:08:00,
2013-09-23 15:13:00,52.2,36.0,29.93,NW,304,4.0,4.0,54,0.00,FEW,,0.00,WeatherDisplay:10.37,2013-09-23 19:13:00,
2013-09-23 15:18:00,51.2,35.1,29.93,WNW,301,8.1,8.1,54,0.00,FEW,,0.00,WeatherDisplay:10.37,2013-09-23 19:18:00,
2013-09-23 15:23:00,51.3,35.2,29.93,NW,305,3.5,3.5,54,0.00,FEW,,0.00,WeatherDisplay:10.37,2013-09-23 19:23:00,
2013-09-23 15:28:00,51.0,34.9,29.93,NW,312,4.6,4.6,54,0.00,FEW,,0.00,WeatherDisplay:10.37,2013-09-23 19:28:00,
2013-09-23 15:33:00,52.1,35.9,29.93,NW,312,2.3,2.3,54,0.00,FEW,,0.00,WeatherDisplay:10.37,2013-09-23 19:33:00,
2013-09-23 15:38:00,52.0,35.9,29.93,NW,312,2.3,2.3,54,0.00,FEW,,0.00,WeatherDisplay:10.37,2013-09-23 19:38:00,
2013-09-23 15:43:00,52.8,36.6,29.93,West,275,5.0,5.0,54,0.00,FEW,,0.00,WeatherDisplay:10.37,2013-09-23 19:43:00,
2013-09-23 15:48:00,51.5,35.4,29.93,WNW,293,4.6,4.6,54,0.00,FEW,,0.00,WeatherDisplay:10.37,2013-09-23 19:48:00,
2013-09-23 15:53:00,51.8,35.7,29.93,NW,305,5.0,5.2,54,0.00,FEW,,0.00,WeatherDisplay:10.37,2013-09-23 19:53:00,
2013-09-23 15:58:00,52.1,35.9,29.93,North,351,4.0,4.0,54,0.00,FEW,,0.00,WeatherDisplay:10.37,2013-09-23 19:58:00,
2013-09-23 16:03:00,51.9,35.8,29.93,NNW,343,3.5,3.5,54,0.00,FEW,,0.00,WeatherDisplay:10.37,2013-09-23 20:03:00,
2013-09-23 16:08:00,52.1,35.9,29.93,WNW,301,6.9,6.9,54,0.00,FEW,,0.00,WeatherDisplay:10.37,2013-09-23 20:08:00,
2013-09-23 16:13:00,50.9,34.8,29.93,WNW,294,5.8,5.8,54,0.00,FEW,,0.00,WeatherDisplay:10.37,2013-09-23 20:13:00,
2013-09-23 16:18:00,51.0,34.9,29.93,NW,308,3.5,3.5,54,0.00,FEW,,0.00,WeatherDisplay:10.37,2013-09-23 20:18:00,
2013-09-23 16:23:00,51.2,35.1,29.93,WNW,301,3.5,3.5,54,0.00,FEW,,0.00,WeatherDisplay:10.37,2013-09-23 20:23:00,
2013-09-23 16:28:00,51.3,35.2,29.93,WNW,300,3.5,3.5,54,0.00,FEW,,0.00,WeatherDisplay:10.37,2013-09-23 20:28:00,
2013-09-23 16:33:00,50.1,34.1,29.93,NNW,335,8.1,8.1,54,0.00,FEW,,0.00,WeatherDisplay:10.37,2013-09-23 20:33:00,
2013-09-23 16:38:00,49.9,33.9,29.93,NW,320,3.5,3.5,54,0.00,FEW,,0.00,WeatherDisplay:10.37,2013-09-23 20:38:00,
2013-09-23 16:43:00,49.7,33.7,29.93,NW,320,3.5,3.5,54,0.00,FEW,,0.00,WeatherDisplay:10.37,2013-09-23 20:43:00,
2013-09-23 16:48:00,49.9,33.9,29.93,NNW,342,3.0,3.0,54,0.00,FEW,,0.00,WeatherDisplay:10.37,2013-09-23 20:48:00,
2013-09-23 16:53:00,49.5,33.5,29.93,NNW,342,5.0,5.0,54,0.00,FEW,,0.00,WeatherDisplay:10.37,2013-09-23 20:53:00,
2013-09-23 16:58:00,48.7,32.8,29.93,NNW,345,5.8,5.8,54,0.00,FEW,,0.00,WeatherDisplay:10.37,2013-09-23 20:58:00,
2013-09-23 17:03:00,48.3,32.4,29.93,NNW,333,5.8,5.8,54,0.00,FEW,,0.00,WeatherDisplay:10.37,2013-09-23 21:03:00,
2013-09-23 17:08:00,48.2,32.3,29.93,NW,305,3.5,3.5,54,0.00,FEW,,0.00,WeatherDisplay:10.37,2013-09-23 21:08:00,
2013-09-23 17:13:00,48.1,32.2,29.93,NNW,337,3.5,3.5,54,0.00,FEW,,0.00,WeatherDisplay:10.37,2013-09-23 21:13:00,
2013-09-23 17:18:00,48.2,32.3,29.93,NNW,332,3.5,3.5,54,0.00,FEW,,0.00,WeatherDisplay:10.37,2013-09-23 21:18:00,
2013-09-23 17:23:00,47.8,31.9,29.93,NNW,332,3.5,3.5,54,0.00,FEW,,0.00,WeatherDisplay:10.37,2013-09-23 21:23:00,
2013-09-23 17:28:00,47.8,31.9,29.93,North,354,3.5,3.5,54,0.00,FEW,,0.00,WeatherDisplay:10.37,2013-09-23 21:28:00,
2013-09-23 17:33:00,48.0,32.1,29.93,North,353,3.5,3.5,54,0.00,FEW,,0.00,WeatherDisplay:10.37,2013-09-23 21:33:00,
2013-09-23 17:38:00,47.8,31.9,29.93,WNW,292,6.9,6.9,54,0.00,FEW,,0.00,WeatherDisplay:10.37,2013-09-23 21:38:00,
2013-09-23 17:43:00,47.8,31.9,29.93,WNW,300,8.1,8.1,54,0.00,FEW,,0.00,WeatherDisplay:10.37,2013-09-23 21:43:00,
2013-09-23 17:48:00,47.7,31.9,29.93,NW,321,4.6,4.6,54,0.00,FEW,,0.00,WeatherDisplay:10.37,2013-09-23 21:48:00,
2013-09-23 17:53:00,47.6,31.8,29.93,NW,309,4.6,4.6,54,0.00,FEW,,0.00,WeatherDisplay:10.37,2013-09-23 21:53:00,
2013-09-23 17:58:00,47.2,31.4,29.93,WNW,302,6.9,6.9,54,0.00,FEW,,0.00,WeatherDisplay:10.37,2013-09-23 21:58:00,
2013-09-23 18:03:00,47.0,31.2,29.93,NW,321,5.8,5.8,54,0.00,FEW,,0.00,WeatherDisplay:10.37,2013-09-23 22:03:00,
2013-09-23 18:08:00,47.2,31.4,29.93,NNW,329,3.5,3.5,54,0.00,FEW,,0.00,WeatherDisplay:10.37,2013-09-23 22:08:00,
2013-09-23 18:13:00,46.6,30.8,29.93,NW,305,4.6,4.6,54,0.00,FEW,,0.00,WeatherDisplay:10.37,2013-09-23 22:13:00,
2013-09-23 18:18:00,46.5,30.7,29.93,NNW,346,6.9,6.9,54,0.00,FEW,,0.00,WeatherDisplay:10.37,2013-09-23 22:18:00,
2013-09-23 18:23:00,46.5,30.7,29.93,WNW,288,6.9,6.9,54,0.00,FEW,,0.00,WeatherDisplay:10.37,2013-09-23 22:23:00,
2013-09-23 18:28:00,46.5,30.7,29.93,NW,326,8.1,8.1,54,0.00,FEW,,0.00,WeatherDisplay:10.37,2013-09-23 22:28:00,
2013-09-23 18:33:00,46.2,30.5,29.93,NW,307,4.0,4.0,54,0.00,FEW,,0.00,WeatherDisplay:10.37,2013-09-23 22:33:00,
2013-09-23 18:38:00,46.3,30.5,29.93,NW,313,4.6,4.6,54,0.00,FEW,,0.00,WeatherDisplay:10.37,2013-09-23 22:38:00,
2013-09-23 18:43:00,46.4,30.6,29.93,NW,314,3.5,3.5,54,0.00,FEW,,0.00,WeatherDisplay:10.37,2013-09-23 22:43:00,
2013-09-23 18:48:00,46.9,31.1,29.93,NW,314,3.5,3.5,54,0.00,FEW,,0.00,WeatherDisplay:10.37,2013-09-23 22:48:00,
2013-09-23 18:53:00,46.5,30.7,29.93,WNW,299,4.6,4.6,54,0.00,FEW,,0.00,WeatherDisplay:10.37,2013-09-23 22:53:00,
2013-09-23 18:58:00,46.2,30.5,29.93,WNW,299,3.5,3.5,54,0.00,FEW,,0.00,WeatherDisplay:10.37,2013-09-23 22:58:00,
2013-09-23 19:03:00,46.2,30.5,29.93,WNW,294,4.6,4.6,54,0.00,FEW,,0.00,WeatherDisplay:10.37,2013-09-23 23:03:00,
2013-09-23 19:08:00,46.6,30.8,29.93,WNW,296,3.0,3.0,54,0.00,FEW,,0.00,WeatherDisplay:10.37,2013-09-23 23:08:00,
2013-09-23 19:13:00,46.5,30.7,29.93,WNW,295,2.0,2.0,54,0.00,FEW,,0.00,WeatherDisplay:10.37,2013-09-23 23:13:00,
2013-09-23 19:18:00,46.4,30.6,29.93,WNW,295,3.5,3.5,54,0.00,FEW,,0.00,WeatherDisplay:10.37,2013-09-23 23:18:00,
2013-09-23 19:23:00,46.4,30.6,29.93,WNW,295,0.0,0.0,54,0.00,FEW,,0.00,WeatherDisplay:10.37,2013-09-23 23:23:00,
2013-09-23 19:28:00,45.5,29.8,29.93,WNW,295,0.0,0.0,54,0.00,FEW,,0.00,WeatherDisplay:10.37,2013-09-23 23:28:00,
2013-09-23 19:33:00,45.8,30.1,29.93,WNW,295,0.0,0.0,54,0.00,FEW,,0.00,WeatherDisplay:10.37,2013-09-23 23:33:00,
2013-09-23 19:38:00,46.5,30.7,29.93,WNW,295,0.0,0.0,54,0.00,FEW,,0.00,WeatherDisplay:10.37,2013-09-23 23:38:00,
2013-09-23 19:43:00,45.8,30.1,29.93,NNW,348,3.5,3.5,54,0.00,FEW,,0.00,WeatherDisplay:10.37,2013-09-23 23:43:00,
2013-09-23 19:48:00,46.1,30.4,29.93,NNW,347,3.5,3.5,54,0.00,FEW,,0.00,WeatherDisplay:10.37,2013-09-23 23:48:00,
2013-09-23 19:53:00,46.2,30.5,29.93,NNW,347,0.0,0.0,54,0.00,FEW,,0.00,WeatherDisplay:10.37,2013-09-23 23:53:00,
2013-09-23 19:58:00,45.4,29.7,29.93,NNW,348,0.0,0.0,54,0.00,FEW,,0.00,WeatherDisplay:10.37,2013-09-23 23:58:00,
2013-09-23 20:03:00,45.9,30.2,29.93,NNW,348,0.0,0.0,54,0.00,FEW,,0.00,WeatherDisplay:10.37,2013-09-24 00:03:00,
2013-09-23 20:08:00,47.7,31.9,29.93,NNW,348,0.0,0.0,54,0.00,FEW,,0.00,WeatherDisplay:10.37,2013-09-24 00:08:00,
2013-09-23 20:13:00,47.9,32.0,29.93,NNW,348,0.0,0.0,54,0.00,FEW,,0.00,WeatherDisplay:10.37,2013-09-24 00:13:00,
2013-09-23 20:18:00,47.5,31.7,29.93,NNW,348,2.3,2.3,54,0.00,FEW,,0.00,WeatherDisplay:10.37,2013-09-24 00:18:00,
2013-09-23 20:23:00,46.8,31.0,29.93,NNW,348,0.0,0.0,54,0.00,FEW,,0.00,WeatherDisplay:10.37,2013-09-24 00:23:00,
2013-09-23 20:28:00,46.6,30.8,29.93,NNW,348,0.0,0.0,54,0.00,FEW,,0.00,WeatherDisplay:10.37,2013-09-24 00:28:00,
2013-09-23 20:33:00,46.9,31.1,29.93,NNW,348,1.0,1.0,54,0.00,FEW,,0.00,WeatherDisplay:10.37,2013-09-24 00:33:00,
2013-09-23 20:38:00,46.5,30.7,29.93,NNW,348,3.5,3.5,54,0.00,FEW,,0.00,WeatherDisplay:10.37,2013-09-24 00:38:00,
2013-09-23 20:43:00,47.2,31.4,29.93,NNW,348,0.0,0.0,54,0.00,FEW,,0.00,WeatherDisplay:10.37,2013-09-24 00:43:00,
2013-09-23 20:48:00,44.8,29.2,29.93,NNW,348,0.0,0.0,54,0.00,FEW,,0.00,WeatherDisplay:10.37,2013-09-24 00:48:00,
2013-09-23 20:53:00,45.2,29.5,29.93,NNW,348,0.0,0.0,54,0.00,FEW,,0.00,WeatherDisplay:10.37,2013-09-24 00:53:00,
2013-09-23 20:58:00,44.7,29.1,29.93,NNW,348,0.0,0.0,54,0.00,FEW,,0.00,WeatherDisplay:10.37,2013-09-24 00:58:00,
2013-09-23 21:03:00,44.5,28.9,29.93,NNW,348,0.0,0.0,54,0.00,FEW,,0.00,WeatherDisplay:10.37,2013-09-24 01:03:00,
2013-09-23 21:08:00,45.3,29.6,29.93,NNW,348,0.0,0.0,54,0.00,FEW,,0.00,WeatherDisplay:10.37,2013-09-24 01:08:00,
2013-09-23 21:13:00,46.0,30.3,29.93,NNW,348,0.0,0.0,54,0.00,FEW,,0.00,WeatherDisplay:10.37,2013-09-24 01:13:00,
2013-09-23 21:18:00,46.0,30.3,29.93,NNW,348,0.0,0.0,54,0.00,FEW,,0.00,WeatherDisplay:10.37,2013-09-24 01:18:00,
2013-09-23 21:23:00,46.5,30.7,29.93,NNW,348,0.0,0.0,54,0.00,FEW,,0.00,WeatherDisplay:10.37,2013-09-24 01:23:00,
2013-09-23 21:28:00,46.5,30.7,29.93,NNW,348,0.0,0.0,54,0.00,FEW,,0.00,WeatherDisplay:10.37,2013-09-24 01:28:00,
2013-09-23 21:33:00,46.6,30.8,29.93,NNW,348,2.3,2.3,54,0.00,FEW,,0.00,WeatherDisplay:10.37,2013-09-24 01:33:00,
2013-09-23 21:38:00,47.1,31.3,29.93,NNW,348,0.0,0.0,54,0.00,FEW,,0.00,WeatherDisplay:10.37,2013-09-24 01:38:00,
2013-09-23 21:43:00,46.1,30.4,29.93,NNW,348,2.0,2.0,54,0.00,FEW,,0.00,WeatherDisplay:10.37,2013-09-24 01:43:00,
2013-09-23 21:48:00,45.8,30.1,29.93,NNW,348,3.5,3.5,54,0.00,FEW,,0.00,WeatherDisplay:10.37,2013-09-24 01:48:00,
2013-09-23 21:53:00,46.7,30.9,29.93,NNW,348,2.3,2.3,54,0.00,FEW,,0.00,WeatherDisplay:10.37,2013-09-24 01:53:00,
2013-09-23 21:58:00,46.5,30.7,29.93,NNW,348,0.0,0.0,54,0.00,FEW,,0.00,WeatherDisplay:10.37,2013-09-24 01:58:00,
2013-09-23 22:03:00,47.2,31.4,29.93,NNW,347,0.0,0.0,54,0.00,FEW,,0.00,WeatherDisplay:10.37,2013-09-24 02:03:00,
2013-09-23 22:08:00,46.9,31.1,29.93,NNW,348,0.0,0.0,54,0.00,FEW,,0.00,WeatherDisplay:10.37,2013-09-24 02:08:00,
2013-09-23 22:13:00,46.7,30.9,29.93,NNW,348,0.0,0.0,54,0.00,FEW,,0.00,WeatherDisplay:10.37,2013-09-24 02:13:00,
2013-09-23 22:18:00,43.6,28.0,29.93,NNW,348,0.0,0.0,54,0.00,FEW,,0.00,WeatherDisplay:10.37,2013-09-24 02:18:00,
2013-09-23 22:23:00,43.3,34.2,30.00,NNW,348,0.0,0.0,70,0.00,CLR,,0.00,WeatherDisplay:10.37,2013-09-24 02:23:00,
2013-09-23 22:28:00,42.6,33.5,30.00,NNW,347,0.0,0.0,70,0.00,CLR,,0.00,WeatherDisplay:10.37,2013-09-24 02:28:00,
2013-09-23 22:33:00,42.3,33.2,30.00,NNW,348,0.0,0.0,70,0.00,CLR,,0.00,WeatherDisplay:10.37,2013-09-24 02:33:00,
2013-09-23 22:38:00,45.2,36.0,30.00,NNW,348,0.0,0.0,70,0.00,CLR,,0.00,WeatherDisplay:10.37,2013-09-24 02:38:00,
2013-09-23 22:43:00,44.6,35.4,30.00,NNW,348,3.0,3.0,70,0.00,CLR,,0.00,WeatherDisplay:10.37,2013-09-24 02:43:00,
2013-09-23 22:48:00,44.1,34.9,30.00,NNW,343,3.5,3.5,70,0.00,CLR,,0.00,WeatherDisplay:10.37,2013-09-24 02:48:00,
2013-09-23 22:53:00,44.3,35.1,30.00,NNW,343,3.5,3.5,70,0.00,CLR,,0.00,WeatherDisplay:10.37,2013-09-24 02:53:00,
2013-09-23 22:58:00,44.2,35.0,30.00,NNW,343,3.5,3.5,70,0.00,CLR,,0.00,WeatherDisplay:10.37,2013-09-24 02:58:00,
2013-09-23 23:03:00,45.1,38.0,29.99,NNW,343,2.3,0.0,76,0.00,CLR,,0.00,WeatherDisplay:10.37,2013-09-24 03:03:00,
2013-09-23 23:08:00,45.0,37.9,29.99,NNW,343,3.5,3.5,76,0.00,CLR,,0.00,WeatherDisplay:10.37,2013-09-24 03:08:00,
2013-09-23 23:13:00,45.4,38.3,29.99,NNW,343,0.0,0.0,76,0.00,CLR,,0.00,WeatherDisplay:10.37,2013-09-24 03:13:00,
2013-09-23 23:18:00,44.9,37.8,29.99,NNW,343,0.0,0.0,76,0.00,CLR,,0.00,WeatherDisplay:10.37,2013-09-24 03:18:00,
2013-09-23 23:23:00,45.8,38.7,29.99,NNW,343,0.0,0.0,76,0.00,CLR,,0.00,WeatherDisplay:10.37,2013-09-24 03:23:00,
2013-09-23 23:28:00,45.5,38.4,29.99,NNW,343,0.0,0.0,76,0.00,CLR,,0.00,WeatherDisplay:10.37,2013-09-24 03:28:00,
2013-09-23 23:33:00,46.2,39.1,29.99,NNW,343,0.0,0.0,76,0.00,CLR,,0.00,WeatherDisplay:10.37,2013-09-24 03:33:00,
2013-09-23 23:38:00,45.9,38.8,29.99,NNW,343,0.0,0.0,76,0.00,CLR,,0.00,WeatherDisplay:10.37,2013-09-24 03:38:00,
2013-09-23 23:43:00,45.6,38.5,29.99,NNW,343,0.0,0.0,76,0.00,CLR,,0.00,WeatherDisplay:10.37,2013-09-24 03:43:00,
2013-09-23 23:48:00,45.7,38.6,29.99,NNW,343,0.0,0.0,76,0.00,CLR,,0.00,WeatherDisplay:10.37,2013-09-24 03:48:00,
2013-09-23 23:53:00,45.6,38.5,29.99,NNW,343,0.0,0.0,76,0.00,CLR,,0.00,WeatherDisplay:10.37,2013-09-24 03:53:00,
2013-09-23 23:58:00,45.1,38.0,29.99,NNW,343,2.3,2.3,76,0.00,CLR,,0.00,WeatherDisplay:10.37,2013-09-24 03:58:00,